Location: Unspecified
(0.0000°N, 0.0000°E)
Time: 13:57:51
(UTC+00:00)

Vanguard 1 Rocket - Visible Passes

Search period start: 21 February 2019 00:00
Search period end: 03 March 2019 00:00
Orbit: 651 x 4225 km, 34.3° (Epoch: 20 February)

Date Brightness Start Highest point End Pass type
(mag) Time Alt. Az. Time Alt. Az. Time Alt. Az.
21 Feb 10.9 04:56:24 10° NNW 05:08:06 23° NNE 05:24:35 10° ENE visible
21 Feb 8.3 20:19:42 10° SW 20:22:51 31° SSW 20:22:51 31° SSW visible
22 Feb 10.9 03:47:36 10° N 03:53:06 13° NNE 03:59:52 10° NE visible
22 Feb 8.4 19:08:29 10° SSW 19:13:35 24° SSE 19:15:50 17° ESE visible
23 Feb 10.8 04:58:50 10° NNW 05:11:26 28° NE 05:30:00 10° E visible
23 Feb 8.1 20:22:32 10° SW 20:26:10 39° WSW 20:26:10 39° WSW visible
24 Feb 10.8 03:49:36 10° N 03:56:58 16° NNE 04:06:47 10° ENE visible
24 Feb 7.8 19:10:38 10° SW 19:16:58 39° SSE 19:19:12 25° E visible
25 Feb 10.7 05:01:14 10° NNW 05:14:25 34° NE 05:34:47 10° E visible
25 Feb 8.3 20:25:43 10° WSW 20:29:34 35° W 20:29:34 35° W visible
26 Feb 10.7 03:51:42 10° N 04:00:28 20° NE 04:13:02 10° ENE visible
26 Feb 7.2 19:13:09 10° SW 19:20:12 68° SE 19:22:38 29° ENE visible
27 Feb 10.7 05:03:41 10° NNW 05:17:06 41° NE 05:38:58 10° ESE visible
27 Feb 8.8 20:29:22 10° W 20:33:02 24° WNW 20:33:02 24° WNW visible
28 Feb 10.6 03:53:55 10° NNW 04:03:36 25° NE 04:18:34 10° E visible
28 Feb 7.3 19:16:00 10° WSW 19:23:16 72° NW 19:26:08 25° NE visible
01 Mar 10.8 02:46:51 10° NNE 02:50:17 12° NE 02:54:33 10° NE visible
01 Mar 10.6 05:06:11 10° NNW 05:19:39 51° NE 05:42:38 10° ESE visible
01 Mar 9.3 20:33:44 10° WNW 20:36:33 15° NW 20:36:33 15° NW visible
02 Mar 10.4 03:57:07 13° NNW 04:06:28 31° NE 04:23:22 10° E visible
02 Mar 8.2 19:19:12 10° WSW 19:26:10 43° NW 19:29:41 17° NNE visible
